Wind_Speed
1 4 5 9 7 3 5 4 5 3 4 3 4 6 9 20 19 19 24 25 32 36 31 34 36 34 27 29 28 27 28 23 19 14 16 18 13 12 11 12 11 12 9 7
3 6 11 5 4 4 5 6 2 3 4 2 5 9 7 10 9 16 25 27 29 37 35 36 36 37 34 30 30 29 27 23 22 18 11 13 15 15 12 12 12 14 12 9
8 5 7 4 5 5 5 8 5 5 2 2 5 4 4 3 8 15 17 24 28 35 38 36 38 38 37 34 31 31 26 24 24 21 15 17 17 16 14 12 12 10 11 12
7 6 7 3 6 6 5 9 11 10 4 3 2 4 5 1 8 9 20 22 25 31 37 40 36 39 38 38 33 29 27 25 23 23 20 16 15 17 13 13 13 11 14 12
9 5 5 5 8 6 7 12 13 10 4 3 2 3 8 3 7 10 19 27 33 31 37 41 38 36 36 38 35 30 28 27 25 24 23 18 19 15 13 14 16 13 16 15
7 3 6 7 4 9 7 8 8 5 4 5 5 5 8 6 9 3 10 27 36 36 34 40 39 37 38 37 35 32 31 30 27 26 26 22 21 17 14 14 14 14 18 16
6 5 3 4 2 1 7 8 4 3 1 6 7 4 13 10 14 14 3 22 34 34 35 40 40 42 40 39 35 34 33 32 29 27 26 23 22 20 19 16 15 15 12 18
7 7 9 4 9 10 9 10 7 8 5 5 3 7 9 12 29 12 14 18 23 34 40 43 46 44 42 41 37 37 36 34 30 30 28 26 24 22 19 16 15 11 10 11
6 9 2 5 6 10 5 4 5 7 4 4 5 7 12 7 8 7 12 16 22 30 40 45 47 46 44 45 41 39 38 35 30 26 29 28 25 26 21 19 18 14 10 10
7 4 5 6 5 4 8 7 2 1 5 4 4 5 6 9 6 6 9 17 24 30 35 41 47 50 47 47 45 41 39 36 32 27 27 30 27 27 22 20 19 17 11 11
6 5 5 4 6 9 2 3 6 6 5 6 4 6 8 12 8 11 11 25 30 35 31 43 45 50 51 48 48 45 43 40 36 31 27 30 29 29 24 21 17 16 15 11
8 5 6 11 3 2 4 6 7 5 6 2 3 7 6 10 10 17 21 31 32 37 39 35 42 47 49 49 49 48 46 40 40 33 30 31 29 31 28 24 17 11 12 11
2 2 7 12 6 4 2 3 4 5 4 8 7 6 4 8 6 16 19 24 26 30 29 34 39 45 49 49 48 48 47 39 41 36 33 32 29 30 28 25 18 12 10 8
2 1 7 12 12 5 4 6 5 6 4 5 7 7 6 9 10 8 21 28 24 24 27 33 39 44 46 48 48 47 47 40 40 39 35 33 30 28 27 25 20 15 11 12
4 2 3 11 7 6 7 6 8 6 8 7 18 11 13 12 14 16 27 28 25 19 24 30 40 44 46 47 47 46 44 39 38 38 35 33 31 27 25 24 22 19 15 14
4 3 6 5 3 7 5 6 9 8 2 8 6 8 10 16 17 8 27 33 28 24 26 27 31 40 44 46 45 44 42 39 37 36 32 31 30 27 24 23 22 22 21 18
2 3 5 5 6 6 2 5 5 4 6 6 7 15 6 7 9 21 27 32 35 33 28 32 33 38 40 39 44 38 40 39 36 35 32 29 28 27 25 23 22 21 23 20
4 3 2 4 6 4 7 2 3 4 7 8 8 5 10 11 14 18 22 27 28 29 30 36 34 36 37 40 42 36 39 39 36 36 33 31 30 28 26 26 25 23 22 22
5 4 2 2 2 6 2 2 3 1 9 4 6 3 5 12 11 3 12 21 27 28 32 32 33 33 40 43 43 40 41 41 39 37 34 34 33 30 29 27 26 26 24 23
7 7 2 3 1 4 6 1 1 5 6 3 5 9 11 9 4 5 15 21 27 32 33 36 37 38 41 41 45 42 42 43 42 40 35 32 34 33 33 29 27 26 24 24
3 4 1 2 4 7 6 11 8 4 7 7 5 14 18 8 10 25 20 17 17 25 31 34 34 38 36 40 44 45 43 44 39 39 39 36 35 33 32 30 28 26 25 25
4 4 3 1 2 5 21 8 4 9 20 3 6 6 4 12 26 26 20 16 14 16 20 26 31 36 37 39 44 48 46 35 42 47 46 41 38 38 37 34 31 28 28 28
2 1 3 7 5 5 19 9 13 21 17 20 9 5 11 17 19 17 16 14 11 14 17 19 24 36 40 41 43 49 43 45 45 45 45 44 42 40 38 36 35 34 32 32
3 1 2 5 3 16 12 23 25 22 23 24 12 1 7 14 15 15 14 11 7 9 16 19 20 29 37 42 42 45 46 44 44 43 43 43 44 42 41 39 37 37 38 37
5 2 2 4 6 23 12 26 28 22 19 20 10 5 8 5 11 15 14 11 7 6 15 15 17 27 33 35 41 43 44 41 42 40 39 39 40 41 41 40 40 39 39 39
2 2 2 3 13 9 20 27 22 22 17 16 13 3 9 12 13 18 15 9 3 2 3 12 13 14 26 33 35 35 34 36 35 33 31 33 34 35 37 39 39 37 37 37
Wind_Direction
24 88 209 216 214 134 153 111 105 34 298 289 204 202 165 170 181 196 205 216 207 210 211 218 221 217 215 216 212 212 210 214 216 219 208 206 210 217 213 224 228 224 222 225
27 210 233 232 203 153 163 128 119 194 226 202 245 240 145 152 169 197 207 209 226 218 220 222 225 222 218 211 211 209 207 209 207 203 198 206 208 214 225 234 233 233 223 222
202 214 183 191 251 211 194 149 204 200 158 308 324 286 162 182 163 196 211 218 220 231 222 223 220 223 218 210 209 203 200 199 203 205 205 210 214 219 231 234 240 256 217 213
233 217 224 155 244 158 240 177 163 146 169 193 45 282 313 322 243 198 202 219 223 226 230 225 217 217 215 212 209 204 203 203 205 204 199 200 204 217 223 243 245 242 229 228
231 161 153 187 221 162 235 153 169 103 118 334 27 51 272 316 283 232 223 224 234 222 227 224 219 217 212 209 207 208 208 208 206 206 203 209 210 228 242 237 245 244 227 227
233 200 145 216 174 202 101 70 49 58 54 340 178 141 277 233 218 235 199 215 225 221 221 224 221 217 211 207 208 210 211 213 209 207 207 215 218 227 232 229 238 242 234 225
290 252 228 199 166 77 100 86 29 14 7 230 154 136 243 269 248 229 195 204 218 219 217 216 215 214 210 207 207 211 214 214 215 210 213 220 219 226 235 243 247 240 245 225
208 300 176 183 181 187 172 156 156 180 192 235 110 213 249 237 250 246 239 214 220 215 216 215 215 215 213 207 208 212 215 214 216 215 218 222 227 230 233 241 242 249 234 225
163 260 214 168 177 136 215 204 181 95 346 105 214 282 300 268 242 192 194 195 208 208 208 210 211 214 215 210 210 215 216 216 214 218 218 220 227 230 235 236 237 247 240 243
217 283 216 230 148 210 155 169 77 319 135 208 269 267 239 291 251 201 193 200 191 202 204 209 210 214 214 218 215 217 217 218 215 215 218 219 226 229 235 241 240 248 248 249
140 134 272 106 179 214 135 186 54 115 132 165 196 256 218 242 213 203 204 212 204 195 201 210 210 216 216 216 216 219 216 220 217 216 216 218 223 225 232 238 242 250 254 245
204 156 228 215 263 204 165 224 166 175 231 225 171 254 257 236 244 191 215 212 214 202 204 206 207 210 208 214 217 219 218 220 220 218 218 218 221 224 231 235 241 240 251 268
278 241 251 297 345 1 184 205 143 112 81 190 147 255 310 266 247 241 244 223 203 207 205 197 198 201 207 213 219 219 220 218 223 219 219 221 221 224 229 231 231 230 233 227
198 104 186 222 225 175 172 183 155 120 112 168 216 237 281 266 233 229 239 240 231 199 188 190 196 200 207 211 219 221 221 216 224 220 220 223 223 226 229 229 225 216 225 217
82 88 301 290 253 184 211 183 163 161 205 163 244 193 238 227 241 213 227 233 227 200 190 191 195 198 205 209 216 220 222 216 221 219 219 221 224 228 225 224 221 212 212 206
350 315 2 298 186 243 207 186 171 206 165 251 134 241 217 241 232 186 220 229 234 219 231 215 201 198 203 207 215 216 221 215 218 215 217 218 219 223 218 215 214 210 209 215
346 38 18 288 350 283 300 210 198 222 183 165 177 225 172 223 212 222 228 224 228 239 226 209 211 209 208 209 211 214 220 213 214 211 213 213 213 212 210 205 203 204 205 211
195 94 124 266 350 207 234 253 213 241 264 227 264 257 185 219 217 207 221 220 227 227 213 209 215 211 214 210 208 212 214 212 210 209 210 208 208 206 208 205 204 206 206 212
164 130 176 205 236 281 256 80 77 31 288 246 239 188 184 156 123 57 225 234 214 204 204 212 218 220 215 209 208 210 213 209 208 207 209 205 204 206 205 208 208 210 214 218
94 105 152 136 180 268 242 202 37 127 276 278 194 174 158 154 115 234 182 213 217 214 209 217 220 216 217 210 210 212 214 209 209 208 208 204 206 208 206 205 210 214 217 224
17 43 325 259 224 282 294 312 326 125 245 302 207 195 170 170 181 163 159 171 202 215 217 219 222 218 220 216 213 214 216 213 215 214 210 207 204 203 204 208 213 219 223 227
164 138 172 333 228 244 8 343 35 312 314 311 106 344 303 140 144 149 149 153 172 193 205 219 223 225 222 222 215 216 217 216 217 216 214 212 213 217 222 223 225 227 228 230
116 146 206 174 237 322 339 288 343 351 343 343 87 91 131 137 148 150 156 166 169 191 206 217 225 224 222 222 220 219 223 219 220 220 221 219 219 221 226 229 231 231 232 232
314 62 225 5 359 335 312 4 356 356 346 338 327 95 141 153 164 166 163 160 175 205 215 231 237 229 222 222 223 223 223 222 223 223 224 224 225 226 230 232 235 237 236 233
241 3 7 275 312 330 245 341 348 353 341 335 330 313 178 179 192 187 181 179 192 199 221 235 243 238 226 222 219 219 222 225 224 224 225 227 228 229 232 235 238 239 242 241
244 89 48 259 296 262 286 318 337 347 346 358 356 290 179 198 195 192 197 196 192 271 246 240 266 255 227 220 218 218 219 223 224 226 226 227 229 232 234 238 242 245 245 243
Height
1479 1488 1496 1490 1485 1487 1496 1503 1507 1506 1502 1503 1501 1498 1498 1498 1503 1509 1513 1517 1513 1515 1516 1521 1525 1530 1534 1538 1541 1542 1545 1549 1552 1554 1555 1557 1559 1560 1561 1563 1563 1562 1563 1564
1485 1493 1479 1479 1483 1488 1493 1505 1509 1506 1499 1500 1495 1495 1494 1498 1497 1500 1504 1509 1514 1512 1516 1517 1521 1525 1529 1534 1538 1541 1543 1546 1549 1552 1554 1555 1557 1558 1558 1560 1561 1560 1562 1563
1487 1481 1475 1481 1482 1489 1495 1504 1508 1501 1498 1497 1500 1497 1497 1495 1494 1496 1498 1502 1506 1510 1509 1512 1515 1519 1524 1530 1534 1536 1539 1542 1546 1550 1552 1553 1555 1557 1558 1558 1559 1558 1554 1561
1480 1473 1476 1480 1482 1484 1499 1485 1489 1496 1512 1517 1500 1525 1491 1487 1485 1486 1490 1493 1497 1502 1506 1508 1510 1514 1518 1524 1530 1534 1537 1539 1543 1547 1550 1551 1553 1554 1555 1556 1557 1558 1558 1558
1479 1473 1476 1482 1477 1476 1485 1478 1485 1498 1512 1513 1511 1525 1499 1487 1483 1478 1479 1483 1487 1491 1498 1501 1505 1509 1513 1521 1526 1530 1533 1537 1541 1544 1547 1549 1551 1553 1554 1555 1555 1556 1557 1558
1469 1467 1468 1471 1471 1471 1475 1489 1499 1511 1519 1533 1515 1521 1504 1485 1472 1465 1468 1472 1476 1484 1490 1496 1502 1506 1511 1517 1523 1527 1530 1533 1537 1540 1543 1545 1548 1551 1553 1554 1554 1554 1555 1556
1470 1469 1464 1464 1473 1472 1481 1503 1544 1543 1545 1537 1516 1520 1488 1462 1456 1457 1457 1460 1465 1475 1484 1491 1496 1501 1507 1512 1517 1522 1526 1530 1533 1536 1540 1543 1546 1548 1550 1552 1553 1554 1554 1555
1490 1494 1466 1459 1465 1476 1481 1490 1524 1545 1552 1529 1514 1523 1482 1449 1446 1453 1457 1458 1463 1467 1474 1481 1487 1494 1500 1507 1513 1516 1521 1525 1529 1533 1536 1540 1543 1545 1547 1550 1552 1553 1553 1555
1489 1483 1453 1452 1453 1462 1480 1494 1477 1514 1520 1521 1513 1489 1461 1448 1446 1447 1452 1454 1456 1461 1465 1473 1480 1488 1495 1501 1506 1511 1516 1521 1526 1529 1532 1536 1540 1542 1544 1548 1550 1551 1553 1553
1458 1477 1452 1447 1449 1452 1461 1461 1494 1506 1523 1523 1515 1503 1491 1457 1451 1447 1447 1448 1450 1456 1462 1468 1474 1480 1489 1495 1501 1507 1513 1516 1522 1527 1530 1533 1536 1539 1543 1545 1547 1549 1551 1552
1453 1464 1461 1449 1456 1459 1464 1470 1480 1486 1502 1519 1522 1505 1456 1450 1444 1444 1442 1445 1446 1450 1453 1460 1466 1474 1481 1490 1498 1503 1508 1513 1519 1523 1527 1530 1533 1537 1540 1543 1545 1547 1549 1550
1444 1462 1472 1459 1440 1439 1442 1449 1459 1482 1500 1505 1504 1491 1438 1437 1432 1437 1436 1438 1442 1443 1448 1453 1460 1467 1476 1485 1490 1497 1503 1508 1513 1519 1523 1527 1531 1534 1537 1540 1543 1545 1546 1547
1445 1460 1469 1460 1453 1441 1442 1447 1456 1465 1476 1496 1504 1487 1436 1433 1433 1432 1431 1436 1440 1441 1445 1452 1457 1463 1470 1478 1484 1491 1497 1503 1508 1514 1520 1523 1527 1531 1535 1538 1542 1544 1545 1547
1443 1456 1456 1461 1453 1443 1446 1442 1449 1456 1480 1483 1482 1460 1443 1433 1430 1428 1428 1429 1434 1437 1439 1446 1452 1457 1465 1471 1478 1484 1491 1500 1503 1510 1516 1519 1524 1527 1531 1535 1539 1542 1544 1545
1448 1460 1450 1444 1431 1432 1430 1431 1444 1450 1449 1465 1442 1458 1437 1430 1421 1423 1423 1425 1430 1435 1440 1443 1445 1451 1459 1467 1472 1479 1487 1494 1500 1505 1511 1515 1520 1525 1529 1533 1536 1540 1542 1544
1450 1457 1453 1448 1430 1431 1428 1424 1434 1436 1441 1444 1446 1445 1419 1413 1417 1419 1421 1422 1424 1428 1433 1437 1441 1447 1452 1461 1467 1474 1481 1489 1496 1502 1507 1513 1518 1521 1526 1530 1534 1537 1540 1543
1451 1455 1463 1464 1445 1438 1444 1423 1422 1421 1426 1427 1444 1417 1409 1412 1413 1411 1413 1418 1421 1423 1427 1432 1434 1439 1447 1455 1464 1471 1477 1485 1491 1499 1504 1509 1514 1517 1521 1526 1530 1533 1536 1539
1448 1456 1464 1465 1457 1461 1427 1411 1410 1415 1412 1412 1410 1404 1402 1402 1402 1406 1410 1412 1414 1417 1422 1427 1431 1438 1444 1453 1461 1468 1474 1480 1487 1494 1500 1505 1510 1514 1518 1522 1525 1529 1532 1535
1440 1451 1460 1465 1472 1447 1416 1411 1414 1420 1416 1402 1402 1400 1399 1401 1401 1405 1406 1409 1411 1415 1420 1425 1430 1435 1440 1448 1456 1463 1470 1477 1483 1489 1494 1500 1505 1509 1513 1517 1521 1525 1528 1531
1439 1444 1458 1467 1461 1460 1425 1406 1409 1412 1433 1397 1397 1395 1396 1400 1416 1410 1405 1408 1412 1416 1420 1423 1427 1433 1437 1445 1452 1458 1465 1473 1478 1483 1489 1494 1499 1504 1508 1511 1516 1520 1523 1526
1448 1447 1461 1467 1459 1444 1415 1409 1407 1427 1428 1395 1392 1393 1392 1396 1394 1397 1402 1405 1410 1414 1418 1422 1427 1430 1435 1442 1449 1454 1460 1466 1472 1477 1484 1490 1494 1498 1503 1507 1511 1515 1519 1522
1453 1455 1460 1467 1460 1451 1422 1410 1419 1423 1404 1398 1393 1398 1396 1392 1394 1398 1402 1405 1409 1412 1416 1420 1423 1426 1432 1436 1443 1449 1453 1461 1467 1472 1478 1484 1489 1493 1498 1502 1506 1510 1514 1517
1457 1451 1454 1454 1448 1434 1431 1428 1426 1420 1409 1403 1398 1399 1399 1398 1401 1403 1405 1409 1411 1413 1415 1417 1419 1421 1425 1430 1436 1441 1448 1455 1461 1467 1472 1478 1484 1488 1492 1495 1499 1503 1507 1510
1448 1447 1448 1444 1438 1429 1427 1425 1421 1414 1411 1405 1404 1402 1401 1403 1406 1407 1408 1410 1412 1413 1414 1414 1416 1418 1420 1425 1430 1435 1443 1449 1456 1461 1467 1473 1478 1482 1486 1490 1493 1497 1499 1502
1449 1444 1447 1445 1437 1429 1424 1426 1425 1414 1413 1410 1405 1404 1403 1403 1407 1412 1412 1411 1412 1411 1412 1413 1413 1413 1417 1420 1426 1431 1437 1444 1451 1456 1462 1467 1471 1475 1479 1483 1486 1489 1493 1497
1444 1446 1449 1447 1439 1442 1434 1422 1424 1418 1421 1414 1407 1405 1404 1405 1404 1408 1412 1412 1411 1410 1407 1410 1410 1409 1414 1418 1422 1428 1435 1440 1446 1452 1457 1461 1465 1470 1473 1476 1480 1483 1487 1491